This is the latest recevied weather packets stored in our database for station/object DC4AT. If no packets are shown the sender has not sent any weather packets the latest 10 day(s).
| Time | Temp. | Humidity | Pressure | Rain* | Wind** | Luminosity | Snow |
|---|---|---|---|---|---|---|---|
| 1788587830 | 13.33° C | 87% | 1017.3 hPa | 0 mm | - | 107 W/m² | - |
| 1788587230 | 13.33° C | 87% | 1017.3 hPa | 0 mm | - | 83 W/m² | - |
| 1788586630 | 13.33° C | 87% | 1017.1 hPa | 0 mm | - | 39 W/m² | - |
| 1788586030 | 13.33° C | 87% | 1017 hPa | 0 mm | - | 32 W/m² | - |
| 1788585430 | 12.78° C | 86% | 1016.9 hPa | 0 mm | - | 19 W/m² | - |
| 1788584830 | 12.78° C | 86% | 1016.9 hPa | 0 mm | - | 16 W/m² | - |
| 1788584230 | 12.78° C | 86% | 1016.9 hPa | 0 mm | - | 11 W/m² | - |
| 1788583630 | 12.78° C | 86% | 1016.6 hPa | 0 mm | - | 5 W/m² | - |
| 1788583030 | 12.78° C | 86% | 1016.5 hPa | 0 mm | - | 0 W/m² | - |
| 1788582430 | 12.78° C | 86% | 1016.4 hPa | 0 mm | - | 0 W/m² | - |
| 1788581830 | 12.78° C | 86% | 1016.4 hPa | 0 mm | - | 0 W/m² | - |
| 1788581230 | 12.78° C | 86% | 1016.3 hPa | 0 mm | - | 0 W/m² | - |
| 1788580630 | 12.78° C | 86% | 1016.4 hPa | 0 mm | - | 0 W/m² | - |
| 1788580030 | 12.78° C | 86% | 1016.4 hPa | 0 mm | - | 0 W/m² | - |
| 1788579430 | 13.33° C | 86% | 1016.2 hPa | 0 mm | - | 0 W/m² | - |
| 1788578830 | 13.33° C | 86% | 1016.1 hPa | 0 mm | - | 0 W/m² | - |
| 1788578230 | 13.33° C | 87% | 1015.9 hPa | 0 mm | - | 0 W/m² | - |
| 1788577630 | 13.33° C | 87% | 1015.9 hPa | 0 mm | - | 0 W/m² | - |
| 1788577030 | 13.33° C | 87% | 1015.8 hPa | 0 mm | - | 0 W/m² | - |
| 1788576430 | 13.89° C | 87% | 1015.7 hPa | 0 mm | - | 0 W/m² | - |
| 1788575830 | 13.89° C | 87% | 1015.7 hPa | 0 mm | - | 0 W/m² | - |
| 1788575230 | 13.89° C | 86% | 1015.7 hPa | 0 mm | - | 0 W/m² | - |
| 1788574630 | 13.89° C | 86% | 1015.8 hPa | 0 mm | - | 0 W/m² | - |
| 1788574030 | 13.89° C | 86% | 1015.6 hPa | 0 mm | - | 0 W/m² | - |
| 1788573430 | 13.89° C | 86% | 1015.6 hPa | 0 mm | - | 0 W/m² | - |
* Rain latest hour (hover to see other rain measurements)
** Current wind speed in m/s (hover to see current wind gust speed)